This is the latest recevied weather packets stored in our database for station/object DB0TBG. If no packets are shown the sender has not sent any weather packets the latest 10 day(s).
| Time | Temp. | Humidity | Pressure | Rain* | Wind** | Luminosity | Snow |
|---|---|---|---|---|---|---|---|
| 1777056940 | 12.22° C | 50% | 975 hPa | 0 mm | 0 m/s | - | - |
| 1777056336 | 12.22° C | 50% | 975 hPa | 0 mm | 0 m/s | - | - |
| 1777055722 | 12.78° C | 48% | 975 hPa | 0 mm | 0 m/s | - | - |
| 1777055123 | 12.78° C | 48% | 975 hPa | 0 mm | 0 m/s | - | - |
| 1777054520 | 13.33° C | 48% | 975 hPa | 0 mm | 0 m/s | - | - |
| 1777053921 | 13.33° C | 48% | 975 hPa | 0 mm | 0 m/s | - | - |
| 1777053322 | 13.89° C | 46% | 974 hPa | 0 mm | 0 m/s | - | - |
| 1777052720 | 13.89° C | 46% | 974 hPa | 0 mm | 0 m/s | - | - |
| 1777052121 | 14.44° C | 46% | 974 hPa | 0 mm | 0 m/s | - | - |
| 1777051522 | 14.44° C | 45% | 975 hPa | 0 mm | 0 m/s | - | - |
| 1777050917 | 15° C | 45% | 975 hPa | 0 mm | 0 m/s | - | - |
| 1777050307 | 15° C | 43% | 975 hPa | 0 mm | 0 m/s | - | - |
| 1777049707 | 15.56° C | 42% | 975 hPa | 0 mm | 0 m/s | - | - |
| 1777048507 | 15.56° C | 40% | 975 hPa | 0 mm | 0 m/s | - | - |
| 1777047908 | 15.56° C | 43% | 975 hPa | 0 mm | 0 m/s | - | - |
| 1777047302 | 15.56° C | 40% | 975 hPa | 0 mm | 0 m/s | - | - |
| 1777046693 | 16.11° C | 40% | 975 hPa | 0 mm | 0 m/s | - | - |
| 1777046094 | 16.11° C | 39% | 975 hPa | 0 mm | 0 m/s | - | - |
| 1777045474 | 16.11° C | 41% | 975 hPa | 0 mm | 0 m/s | - | - |
| 1777044868 | 15.56° C | 42% | 975 hPa | 0 mm | 0 m/s | - | - |
| 1777044262 | 15.56° C | 40% | 975 hPa | 0 mm | 0 m/s | - | - |
| 1777043656 | 15.56° C | 40% | 975 hPa | 0 mm | 0 m/s | - | - |
| 1777043057 | 15.56° C | 41% | 975 hPa | 0 mm | 0 m/s | - | - |
| 1777041855 | 15.56° C | 38% | 975 hPa | 0 mm | 0 m/s | - | - |
| 1777041256 | 15.56° C | 39% | 975 hPa | 0 mm | 0 m/s | - | - |
* Rain latest hour (hover to see other rain measurements)
** Current wind speed in m/s (hover to see current wind gust speed)